This is the latest recevied weather packets stored in our database for station/object K7YVO. If no packets are shown the sender has not sent any weather packets the latest 10 day(s).
| Time | Temp. | Humidity | Pressure | Rain* | Wind** | Luminosity | Snow |
|---|---|---|---|---|---|---|---|
| 1777342931 | 12.22° C | 68% | 1020.7 hPa | 0 mm | - | 16 W/m² | - |
| 1777342628 | 12.22° C | 68% | 1020.8 hPa | 0 mm | - | 18 W/m² | - |
| 1777342324 | 12.22° C | 68% | 1020.9 hPa | 0 mm | - | 19 W/m² | - |
| 1777342022 | 12.22° C | 68% | 1021 hPa | 0 mm | - | 21 W/m² | - |
| 1777341718 | 12.22° C | 68% | 1021 hPa | 0 mm | - | 22 W/m² | - |
| 1777341415 | 12.22° C | 67% | 1021 hPa | 0 mm | - | 23 W/m² | - |
| 1777341111 | 12.22° C | 67% | 1021 hPa | 0 mm | - | 24 W/m² | - |
| 1777340808 | 12.22° C | 67% | 1020.9 hPa | 0 mm | - | 26 W/m² | - |
| 1777340507 | 12.22° C | 67% | 1020.9 hPa | 0 mm | - | 28 W/m² | - |
| 1777340203 | 12.22° C | 67% | 1020.9 hPa | 0 mm | - | 33 W/m² | - |
| 1777339900 | 12.22° C | 66% | 1021 hPa | 0 mm | - | 33 W/m² | - |
| 1777339598 | 12.22° C | 67% | 1020.9 hPa | 0 mm | - | 35 W/m² | - |
| 1777339294 | 12.22° C | 67% | 1020.9 hPa | 0 mm | - | 35 W/m² | - |
| 1777338993 | 12.22° C | 67% | 1021.1 hPa | 0 mm | - | 36 W/m² | - |
| 1777338689 | 12.22° C | 67% | 1020.9 hPa | 0 mm | - | 38 W/m² | - |
| 1777338388 | 12.22° C | 67% | 1021 hPa | 0 mm | - | 48 W/m² | - |
| 1777338084 | 12.22° C | 66% | 1020.9 hPa | 0 mm | - | 54 W/m² | - |
| 1777337780 | 12.22° C | 66% | 1021.1 hPa | 0 mm | - | 62 W/m² | - |
| 1777337478 | 12.22° C | 66% | 1021 hPa | 0 mm | - | 65 W/m² | - |
| 1777337174 | 12.22° C | 66% | 1021.1 hPa | 0 mm | - | 71 W/m² | - |
| 1777336872 | 12.22° C | 66% | 1020.9 hPa | 0 mm | - | 63 W/m² | - |
| 1777336571 | 12.22° C | 66% | 1021 hPa | 0 mm | - | 64 W/m² | - |
| 1777336269 | 11.67° C | 67% | 1020.9 hPa | 0 mm | - | 69 W/m² | - |
| 1777335965 | 12.22° C | 66% | 1020.8 hPa | 0 mm | - | 76 W/m² | - |
| 1777335662 | 12.22° C | 66% | 1020.9 hPa | 0 mm | - | 83 W/m² | - |
* Rain latest hour (hover to see other rain measurements)
** Current wind speed in m/s (hover to see current wind gust speed)